Time,TemperatureF,DewpointF,PressureIn,WindDirection,WindDirectionDegrees,WindSpeedMPH,WindSpeedGustMPH,Humidity,HourlyPrecipIn,Conditions,Clouds,dailyrainin,SoftwareType,DateUTC
2013-07-15 00:02:00,73.0,-99.9,-100.00,SW,225,0.0,1.0,-999,0.00,,,-99.99,,2013-07-15 05:02:00,
2013-07-15 00:12:00,72.0,-99.9,-100.00,North,0,0.0,0.0,-999,0.00,,,-99.99,,2013-07-15 05:12:00,
2013-07-15 00:22:00,72.0,-99.9,-100.00,NE,48,2.0,5.0,-999,0.00,,,-99.99,,2013-07-15 05:22:00,
2013-07-15 00:32:00,72.0,-99.9,-100.00,North,0,0.0,0.0,-999,0.00,,,-99.99,,2013-07-15 05:32:00,
2013-07-15 00:43:00,71.0,-99.9,-100.00,North,0,0.0,0.0,-999,0.00,,,-99.99,,2013-07-15 05:43:00,
2013-07-15 00:53:00,71.0,-99.9,-100.00,NW,323,1.0,2.0,-999,0.00,,,-99.99,,2013-07-15 05:53:00,
2013-07-15 01:02:00,71.0,-99.9,-100.00,North,0,0.0,0.0,-999,0.00,,,-99.99,,2013-07-15 06:02:00,
2013-07-15 01:12:00,72.0,-99.9,-100.00,WNW,293,2.0,4.0,-999,0.00,,,-99.99,,2013-07-15 06:12:00,
2013-07-15 01:22:00,71.0,-99.9,-100.00,WNW,295,1.0,4.0,-999,0.00,,,-99.99,,2013-07-15 06:22:00,
2013-07-15 01:32:00,70.0,-99.9,-100.00,North,0,0.0,0.0,-999,0.00,,,-99.99,,2013-07-15 06:32:00,
2013-07-15 01:42:00,71.0,-99.9,-100.00,WNW,284,2.0,3.0,-999,0.00,,,-99.99,,2013-07-15 06:42:00,
2013-07-15 01:53:00,71.0,-99.9,-100.00,NW,305,3.0,5.0,-999,0.00,,,-99.99,,2013-07-15 06:53:00,
2013-07-15 02:01:00,70.0,-99.9,-100.00,North,0,0.0,0.0,-999,0.00,,,-99.99,,2013-07-15 07:01:00,
2013-07-15 02:11:00,70.0,-99.9,-100.00,North,352,1.0,2.0,-999,0.00,,,-99.99,,2013-07-15 07:11:00,
2013-07-15 02:22:00,71.0,-99.9,-100.00,North,354,2.0,3.0,-999,0.00,,,-99.99,,2013-07-15 07:22:00,
2013-07-15 02:33:00,70.0,-99.9,-100.00,North,11,1.0,2.0,-999,0.00,,,-99.99,,2013-07-15 07:33:00,
2013-07-15 02:44:00,70.0,-99.9,-100.00,South,184,3.0,5.0,-999,0.00,,,-99.99,,2013-07-15 07:44:00,
2013-07-15 02:53:00,70.0,-99.9,-100.00,SW,233,3.0,5.0,-999,0.00,,,-99.99,,2013-07-15 07:53:00,
2013-07-15 03:02:00,70.0,-99.9,-100.00,West,273,2.0,4.0,-999,0.00,,,-99.99,,2013-07-15 08:02:00,
2013-07-15 03:12:00,70.0,-99.9,-100.00,SSE,166,3.0,6.0,-999,0.00,,,-99.99,,2013-07-15 08:12:00,
2013-07-15 03:22:00,65.0,-99.9,-100.00,SSW,201,9.0,15.0,-999,0.00,,,-99.99,,2013-07-15 08:22:00,
2013-07-15 03:32:00,66.0,-99.9,-100.00,SW,226,4.0,8.0,-999,0.00,,,-99.99,,2013-07-15 08:32:00,
2013-07-15 03:44:00,65.0,-99.9,-100.00,West,262,4.0,9.0,-999,0.00,,,-99.99,,2013-07-15 08:44:00,
2013-07-15 03:53:00,65.0,-99.9,-100.00,WNW,294,1.0,5.0,-999,0.00,,,-99.99,,2013-07-15 08:53:00,
2013-07-15 04:02:00,66.0,-99.9,-100.00,WNW,291,0.0,1.0,-999,0.00,,,-99.99,,2013-07-15 09:02:00,
2013-07-15 04:12:00,65.0,-99.9,-100.00,SW,225,3.0,5.0,-999,0.00,,,-99.99,,2013-07-15 09:12:00,
2013-07-15 04:22:00,65.0,-99.9,-100.00,SW,222,2.0,6.0,-999,0.00,,,-99.99,,2013-07-15 09:22:00,
2013-07-15 04:32:00,64.0,-99.9,-100.00,West,276,5.0,9.0,-999,0.00,,,-99.99,,2013-07-15 09:32:00,
2013-07-15 04:43:00,65.0,-99.9,-100.00,WNW,284,3.0,5.0,-999,0.00,,,-99.99,,2013-07-15 09:43:00,
2013-07-15 04:53:00,65.0,-99.9,-100.00,North,4,6.0,7.0,-999,0.00,,,-99.99,,2013-07-15 09:53:00,
2013-07-15 05:02:00,65.0,-99.9,-100.00,North,359,4.0,7.0,-999,0.00,,,-99.99,,2013-07-15 10:02:00,
2013-07-15 05:11:00,65.0,-99.9,-100.00,NNW,329,2.0,5.0,-999,0.00,,,-99.99,,2013-07-15 10:11:00,
2013-07-15 05:22:00,65.0,-99.9,-100.00,NNW,333,0.0,2.0,-999,0.00,,,-99.99,,2013-07-15 10:22:00,
2013-07-15 05:32:00,65.0,-99.9,-100.00,North,0,0.0,0.0,-999,0.00,,,-99.99,,2013-07-15 10:32:00,
2013-07-15 05:43:00,65.0,-99.9,-100.00,North,10,1.0,3.0,-999,0.00,,,-99.99,,2013-07-15 10:43:00,
2013-07-15 05:53:00,65.0,-99.9,-100.00,NNE,13,1.0,3.0,-999,0.00,,,-99.99,,2013-07-15 10:53:00,
2013-07-15 06:02:00,65.0,-99.9,-100.00,North,354,3.0,5.0,-999,0.00,,,-99.99,,2013-07-15 11:02:00,
2013-07-15 06:11:00,65.0,-99.9,-100.00,NNW,335,4.0,6.0,-999,0.00,,,-99.99,,2013-07-15 11:11:00,
2013-07-15 06:22:00,66.0,-99.9,-100.00,NNW,336,3.0,5.0,-999,0.00,,,-99.99,,2013-07-15 11:22:00,
2013-07-15 06:32:00,66.0,-99.9,-100.00,North,0,0.0,0.0,-999,0.00,,,-99.99,,2013-07-15 11:32:00,
2013-07-15 06:43:00,66.0,-99.9,-100.00,North,0,0.0,0.0,-999,0.00,,,-99.99,,2013-07-15 11:43:00,
2013-07-15 06:52:00,65.0,-99.9,-100.00,NW,315,2.0,5.0,-999,0.00,,,-99.99,,2013-07-15 11:52:00,
2013-07-15 07:01:00,66.0,-99.9,-100.00,North,356,3.0,4.0,-999,0.00,,,-99.99,,2013-07-15 12:01:00,
2013-07-15 07:11:00,66.0,-99.9,-100.00,North,0,0.0,0.0,-999,0.00,,,-99.99,,2013-07-15 12:11:00,
2013-07-15 07:22:00,66.0,-99.9,-100.00,North,0,4.0,5.0,-999,0.00,,,-99.99,,2013-07-15 12:22:00,
2013-07-15 07:33:00,66.0,-99.9,-100.00,North,0,0.0,0.0,-999,0.00,,,-99.99,,2013-07-15 12:33:00,
2013-07-15 07:43:00,66.0,-99.9,-100.00,NNW,338,6.0,9.0,-999,0.00,,,-99.99,,2013-07-15 12:43:00,
2013-07-15 07:53:00,66.0,-99.9,-100.00,East,98,4.0,6.0,-999,0.00,,,-99.99,,2013-07-15 12:53:00,
2013-07-15 08:02:00,67.0,-99.9,-100.00,NNE,18,4.0,7.0,-999,0.00,,,-99.99,,2013-07-15 13:02:00,
2013-07-15 08:11:00,67.0,-99.9,-100.00,North,8,4.0,7.0,-999,0.00,,,-99.99,,2013-07-15 13:11:00,
2013-07-15 08:22:00,67.0,-99.9,-100.00,NNE,28,3.0,5.0,-999,0.00,,,-99.99,,2013-07-15 13:22:00,
2013-07-15 08:33:00,68.0,-99.9,-100.00,North,352,4.0,6.0,-999,0.00,,,-99.99,,2013-07-15 13:33:00,
2013-07-15 08:43:00,68.0,-99.9,-100.00,North,359,5.0,7.0,-999,0.00,,,-99.99,,2013-07-15 13:43:00,
2013-07-15 08:53:00,69.0,-99.9,-100.00,NNE,14,3.0,6.0,-999,0.00,,,-99.99,,2013-07-15 13:53:00,
2013-07-15 09:02:00,69.0,-99.9,-100.00,North,359,4.0,6.0,-999,0.00,,,-99.99,,2013-07-15 14:02:00,
2013-07-15 09:11:00,70.0,-99.9,-100.00,North,353,2.0,5.0,-999,0.00,,,-99.99,,2013-07-15 14:11:00,
2013-07-15 09:22:00,70.0,-99.9,-100.00,North,0,3.0,4.0,-999,0.00,,,-99.99,,2013-07-15 14:22:00,
2013-07-15 09:33:00,71.0,-99.9,-100.00,NNE,17,2.0,4.0,-999,0.00,,,-99.99,,2013-07-15 14:33:00,
2013-07-15 09:43:00,72.0,-99.9,-100.00,NNE,17,3.0,5.0,-999,0.00,,,-99.99,,2013-07-15 14:43:00,
2013-07-15 10:03:00,73.0,-99.9,-100.00,North,6,4.0,6.0,-999,0.00,,,-99.99,,2013-07-15 15:03:00,
2013-07-15 10:50:00,75.0,-99.9,-100.00,NE,52,5.0,7.0,-999,0.00,,,-99.99,,2013-07-15 15:50:00,
2013-07-15 11:08:00,77.0,-99.9,-100.00,ESE,107,8.0,11.0,-999,0.00,,,-99.99,,2013-07-15 16:08:00,
2013-07-15 11:15:00,78.0,-99.9,-100.00,ESE,113,6.0,12.0,-999,0.00,,,-99.99,,2013-07-15 16:15:00,
2013-07-15 11:24:00,77.0,-99.9,-100.00,ESE,108,8.0,11.0,-999,0.00,,,-99.99,,2013-07-15 16:24:00,
2013-07-15 11:33:00,76.0,-99.9,-100.00,ESE,110,9.0,18.0,-999,0.00,,,-99.99,,2013-07-15 16:33:00,
2013-07-15 11:51:00,77.0,-99.9,-100.00,ESE,107,9.0,13.0,-999,0.00,,,-99.99,,2013-07-15 16:51:00,
2013-07-15 12:13:00,81.0,-99.9,-100.00,ESE,110,11.0,16.0,-999,0.00,,,-99.99,,2013-07-15 17:13:00,
2013-07-15 12:23:00,82.0,-99.9,-100.00,ESE,121,11.0,18.0,-999,0.00,,,-99.99,,2013-07-15 17:23:00,
2013-07-15 12:37:00,80.0,-99.9,-100.00,ESE,114,12.0,19.0,-999,0.00,,,-99.99,,2013-07-15 17:37:00,
2013-07-15 12:52:00,80.0,-99.9,-100.00,East,101,12.0,17.0,-999,0.00,,,-99.99,,2013-07-15 17:52:00,
2013-07-15 13:01:00,80.0,-99.9,-100.00,ESE,115,11.0,16.0,-999,0.00,,,-99.99,,2013-07-15 18:01:00,
2013-07-15 13:09:00,81.0,-99.9,-100.00,SE,139,8.0,13.0,-999,0.00,,,-99.99,,2013-07-15 18:09:00,
2013-07-15 13:19:00,81.0,-99.9,-100.00,SE,138,9.0,13.0,-999,0.00,,,-99.99,,2013-07-15 18:19:00,
2013-07-15 13:29:00,81.0,-99.9,-100.00,SE,131,10.0,13.0,-999,0.00,,,-99.99,,2013-07-15 18:29:00,
2013-07-15 13:41:00,81.0,-99.9,-100.00,SE,138,11.0,17.0,-999,0.00,,,-99.99,,2013-07-15 18:41:00,
2013-07-15 13:59:00,82.0,-99.9,-100.00,South,172,11.0,16.0,-999,0.00,,,-99.99,,2013-07-15 18:59:00,
2013-07-15 14:05:00,82.0,-99.9,-100.00,SSE,150,9.0,15.0,-999,0.00,,,-99.99,,2013-07-15 19:05:00,
2013-07-15 14:12:00,84.0,-99.9,-100.00,SSE,165,9.0,13.0,-999,0.00,,,-99.99,,2013-07-15 19:12:00,
2013-07-15 14:24:00,83.0,-99.9,-100.00,SSE,155,11.0,18.0,-999,0.00,,,-99.99,,2013-07-15 19:24:00,
2013-07-15 14:40:00,85.0,-99.9,-100.00,SSW,200,9.0,14.0,-999,0.00,,,-99.99,,2013-07-15 19:40:00,
2013-07-15 14:50:00,82.0,-99.9,-100.00,SSE,160,10.0,13.0,-999,0.00,,,-99.99,,2013-07-15 19:50:00,
2013-07-15 14:57:00,83.0,-99.9,-100.00,South,187,8.0,12.0,-999,0.00,,,-99.99,,2013-07-15 19:57:00,
2013-07-15 15:07:00,84.0,-99.9,-100.00,South,172,9.0,13.0,-999,0.00,,,-99.99,,2013-07-15 20:07:00,
2013-07-15 15:19:00,84.0,-99.9,-100.00,SE,136,9.0,14.0,-999,0.00,,,-99.99,,2013-07-15 20:19:00,
2013-07-15 15:29:00,84.0,-99.9,-100.00,SSE,159,7.0,10.0,-999,0.00,,,-99.99,,2013-07-15 20:29:00,
2013-07-15 15:37:00,83.0,-99.9,-100.00,SSE,162,8.0,12.0,-999,0.00,,,-99.99,,2013-07-15 20:37:00,
2013-07-15 15:43:00,82.0,-99.9,-100.00,SE,141,8.0,12.0,-999,0.00,,,-99.99,,2013-07-15 20:43:00,
2013-07-15 16:00:00,82.0,-99.9,-100.00,South,173,8.0,11.0,-999,0.00,,,-99.99,,2013-07-15 21:00:00,
2013-07-15 16:13:00,83.0,-99.9,-100.00,SSW,201,6.0,9.0,-999,0.00,,,-99.99,,2013-07-15 21:13:00,
2013-07-15 16:24:00,81.0,-99.9,-100.00,South,169,6.0,9.0,-999,0.00,,,-99.99,,2013-07-15 21:24:00,
2013-07-15 16:41:00,82.0,-99.9,-100.00,SSE,165,5.0,9.0,-999,0.00,,,-99.99,,2013-07-15 21:41:00,
2013-07-15 16:48:00,81.0,-99.9,-100.00,SSW,197,6.0,9.0,-999,0.00,,,-99.99,,2013-07-15 21:48:00,
2013-07-15 17:02:00,80.0,-99.9,-100.00,SW,225,4.0,7.0,-999,0.00,,,-99.99,,2013-07-15 22:02:00,
2013-07-15 17:20:00,79.0,-99.9,-100.00,SW,225,4.0,7.0,-999,0.00,,,-99.99,,2013-07-15 22:20:00,
2013-07-15 17:36:00,79.0,-99.9,-100.00,SW,222,4.0,7.0,-999,0.00,,,-99.99,,2013-07-15 22:36:00,
2013-07-15 17:44:00,80.0,-99.9,-100.00,SW,235,3.0,6.0,-999,0.00,,,-99.99,,2013-07-15 22:44:00,
2013-07-15 17:55:00,80.0,-99.9,-100.00,SW,226,4.0,7.0,-999,0.00,,,-99.99,,2013-07-15 22:55:00,
2013-07-15 18:08:00,80.0,-99.9,-100.00,SW,232,4.0,6.0,-999,0.00,,,-99.99,,2013-07-15 23:08:00,
2013-07-15 18:13:00,81.0,-99.9,-100.00,West,280,2.0,5.0,-999,0.00,,,-99.99,,2013-07-15 23:13:00,
2013-07-15 18:31:00,80.0,-99.9,-100.00,WSW,256,3.0,5.0,-999,0.00,,,-99.99,,2013-07-15 23:31:00,
2013-07-15 18:40:00,79.0,-99.9,-100.00,WSW,248,3.0,4.0,-999,0.00,,,-99.99,,2013-07-15 23:40:00,
2013-07-15 18:50:00,79.0,-99.9,-100.00,SW,236,1.0,2.0,-999,0.00,,,-99.99,,2013-07-15 23:50:00,
2013-07-15 19:03:00,79.0,-99.9,-100.00,West,277,2.0,4.0,-999,0.00,,,-99.99,,2013-07-16 00:03:00,
2013-07-15 19:16:00,79.0,-99.9,-100.00,West,264,0.0,1.0,-999,0.00,,,-99.99,,2013-07-16 00:16:00,
2013-07-15 19:28:00,79.0,-99.9,-100.00,North,0,0.0,0.0,-999,0.00,,,-99.99,,2013-07-16 00:28:00,
2013-07-15 19:34:00,78.0,-99.9,-100.00,West,266,0.0,2.0,-999,0.00,,,-99.99,,2013-07-16 00:34:00,
2013-07-15 19:51:00,78.0,-99.9,-100.00,North,0,0.0,0.0,-999,0.00,,,-99.99,,2013-07-16 00:51:00,
2013-07-15 20:12:00,77.0,-99.9,-100.00,North,0,0.0,0.0,-999,0.00,,,-99.99,,2013-07-16 01:12:00,
2013-07-15 20:18:00,77.0,-99.9,-100.00,North,0,0.0,0.0,-999,0.00,,,-99.99,,2013-07-16 01:18:00,
2013-07-15 20:39:00,76.0,-99.9,-100.00,North,0,0.0,0.0,-999,0.00,,,-99.99,,2013-07-16 01:39:00,
2013-07-15 20:49:00,75.0,-99.9,-100.00,North,0,0.0,0.0,-999,0.00,,,-99.99,,2013-07-16 01:49:00,
2013-07-15 21:02:00,75.0,-99.9,-100.00,North,0,0.0,0.0,-999,0.00,,,-99.99,,2013-07-16 02:02:00,
2013-07-15 21:11:00,74.0,-99.9,-100.00,North,0,0.0,0.0,-999,0.00,,,-99.99,,2013-07-16 02:11:00,
2013-07-15 21:30:00,74.0,-99.9,-100.00,North,0,0.0,0.0,-999,0.00,,,-99.99,,2013-07-16 02:30:00,
2013-07-15 21:35:00,74.0,-99.9,-100.00,North,0,0.0,0.0,-999,0.00,,,-99.99,,2013-07-16 02:35:00,
2013-07-15 21:53:00,74.0,-99.9,-100.00,North,0,0.0,0.0,-999,0.00,,,-99.99,,2013-07-16 02:53:00,
2013-07-15 22:11:00,74.0,-99.9,-100.00,North,0,0.0,0.0,-999,0.00,,,-99.99,,2013-07-16 03:11:00,
2013-07-15 22:17:00,73.0,-99.9,-100.00,North,0,0.0,0.0,-999,0.00,,,-99.99,,2013-07-16 03:17:00,
2013-07-15 22:29:00,73.0,-99.9,-100.00,North,0,0.0,0.0,-999,0.00,,,-99.99,,2013-07-16 03:29:00,
2013-07-15 22:49:00,72.0,-99.9,-100.00,ESE,115,6.0,7.0,-999,0.00,,,-99.99,,2013-07-16 03:49:00,
2013-07-15 22:58:00,73.0,-99.9,-100.00,North,0,0.0,0.0,-999,0.00,,,-99.99,,2013-07-16 03:58:00,
2013-07-15 23:02:00,71.0,-99.9,-100.00,ESE,108,6.0,10.0,-999,0.00,,,-99.99,,2013-07-16 04:02:00,
2013-07-15 23:12:00,71.0,-99.9,-100.00,NE,39,3.0,4.0,-999,0.00,,,-99.99,,2013-07-16 04:12:00,
2013-07-15 23:22:00,70.0,-99.9,-100.00,NE,44,4.0,5.0,-999,0.00,,,-99.99,,2013-07-16 04:22:00,
2013-07-15 23:32:00,70.0,-99.9,-100.00,NNE,30,3.0,4.0,-999,0.00,,,-99.99,,2013-07-16 04:32:00,
2013-07-15 23:43:00,70.0,-99.9,-100.00,NNE,32,1.0,2.0,-999,0.00,,,-99.99,,2013-07-16 04:43:00,
2013-07-15 23:53:00,70.0,-99.9,-100.00,NE,38,1.0,2.0,-999,0.00,,,-99.99,,2013-07-16 04:53:00,